CW9854 Weather Reports


Display with metric or nautical units.
time (UTC)temp
F
wind
direction
speed
MPH
gust
MPH
rain 1hr
in
rain 24hr
in
rain mn
in
humidity
%
barometer
mb
20260508004003 44 106 1.0 2.0 0.01 0.01 0.01 87 1010.5
20260508003503 44 36 1.0 2.0 0.01 0.01 0.01 86 1010.6
20260508003003 44 334 1.0 2.0 0.01 0.01 0.01 85 1010.6
20260508002503 44 319 1.0 3.0 0.00 0.00 0.00 85 1010.6
20260508002004 45 299 2.0 4.0 0.00 0.00 0.00 83 1010.7
20260508001503 45 288 2.0 4.0 0.00 0.00 0.00 82 1010.6
20260508001003 46 286 2.0 4.0 0.00 0.00 0.00 80 1010.5
20260508000003 48 301 2.0 4.0 0.00 0.00 0.00 74 1010.4
20260507235503 48 276 2.0 4.0 0.00 0.00 0.00 73 1010.0
20260507235003 49 276 2.0 4.0 0.00 0.00 0.00 71 1010.1
20260507234503 49 275 1.0 3.0 0.00 0.00 0.00 72 1010.0
20260507234003 49 0 0.0 0.0 0.00 0.00 0.00 68 1009.9
20260507233718 50 0 0.0 0.0 0.00 0.00 0.00 66 1009.8
20260507233003 50 0 0.0 0.0 0.00 0.00 0.00 66 1009.7
20260507232503 50 0 0.0 0.0 0.00 0.00 0.00 66 1009.7
20260507232003 50 261 0.0 1.0 0.00 0.00 0.00 67 1009.7
20260507231503 50 261 0.0 1.0 0.00 0.00 0.00 68 1009.6
20260507231003 50 261 0.0 1.0 0.00 0.00 0.00 68 1009.7
20260507230503 50 261 0.0 3.0 0.00 0.00 0.00 68 1009.6
20260507230004 50 261 1.0 3.0 0.00 0.00 0.00 66 1009.7
20260507225718 50 261 1.0 3.0 0.00 0.00 0.00 62 1009.7
20260507225003 51 261 1.0 3.0 0.00 0.00 0.00 63 1009.7
20260507224504 51 259 1.0 3.0 0.00 0.00 0.00 62 1009.7
20260507224004 51 247 1.0 3.0 0.00 0.00 0.00 62 1009.6
20260507223503 51 232 1.0 3.0 0.00 0.00 0.00 62 1009.7
20260507223003 51 227 1.0 3.0 0.00 0.00 0.00 61 1009.8
20260507222503 51 224 1.0 3.0 0.00 0.00 0.00 61 1009.7
20260507222003 51 222 1.0 2.0 0.00 0.00 0.00 62 1009.7
20260507221503 52 223 1.0 3.0 0.00 0.00 0.00 60 1009.6
20260507221217 52 223 1.0 3.0 0.00 0.00 0.00 62 1009.6
20260507220503 52 222 1.0 3.0 0.00 0.00 0.00 62 1009.7
20260507220003 52 214 1.0 3.0 0.00 0.00 0.00 63 1009.7
20260507215718 52 216 1.0 3.0 0.00 0.00 0.00 64 1009.7
20260507215006 52 257 1.0 3.0 0.00 0.00 0.00 60 1009.9
20260507214503 52 267 1.0 3.0 0.00 0.00 0.00 58 1009.7
20260507214003 51 227 1.0 2.0 0.00 0.00 0.00 62 1009.8
20260507213717 51 208 1.0 2.0 0.00 0.00 0.00 61 1009.8
20260507213216 51 202 1.0 2.0 0.00 0.00 0.00 62 1009.8
20260507212503 51 211 0.0 2.0 0.00 0.00 0.00 63 1009.8
20260507212218 51 230 0.0 2.0 0.00 0.00 0.00 64 1009.8
20260507211503 51 267 1.0 2.0 0.00 0.00 0.00 62 1009.8
20260507211003 51 291 0.0 2.0 0.00 0.00 0.00 62 1009.8
20260507210503 51 296 0.0 2.0 0.00 0.00 0.00 66 1009.8
20260507210003 50 323 0.0 2.0 0.00 0.00 0.00 61 1009.9
20260507205503 50 302 1.0 3.0 0.00 0.00 0.00 63 1009.8
20260507205218 50 304 1.0 3.0 0.00 0.00 0.00 63 1009.9
20260507204503 51 319 1.0 3.0 0.00 0.00 0.00 64 1009.9
20260507204003 51 305 1.0 3.0 0.00 0.00 0.00 63 1009.9
20260507203717 51 302 1.0 2.0 0.00 0.00 0.00 64 1009.9
20260507203003 52 301 1.0 3.0 0.00 0.00 0.00 64 1009.8
20260507202717 52 287 1.0 3.0 0.00 0.00 0.00 62 1009.9
20260507202003 52 263 1.0 3.0 0.00 0.00 0.00 59 1009.9
20260507201503 53 266 1.0 3.0 0.00 0.00 0.00 60 1009.8
20260507201218 53 296 1.0 3.0 0.00 0.00 0.00 61 1009.8
20260507200503 54 338 1.0 3.0 0.00 0.00 0.00 60 1009.8
20260507200004 54 337 1.0 3.0 0.00 0.00 0.00 60 1009.9
20260507195503 54 343 2.0 4.0 0.00 0.00 0.00 55 1010.0
20260507195218 54 344 2.0 4.0 0.00 0.00 0.00 58 1010.0
20260507194503 54 322 2.0 4.0 0.00 0.00 0.00 54 1010.1
20260507194003 54 319 1.0 3.0 0.00 0.00 0.00 63 1010.0
20260507193503 53 313 1.0 3.0 0.00 0.00 0.00 62 1010.2
20260507193003 52 335 1.0 3.0 0.00 0.00 0.00 64 1010.2
20260507192503 51 330 1.0 3.0 0.00 0.00 0.00 61 1010.2
20260507192003 51 300 1.0 3.0 0.00 0.00 0.00 65 1010.2
20260507191503 49 124 1.0 3.0 0.00 0.00 0.00 70 1010.4
20260507191003 48 116 1.0 2.0 0.00 0.00 0.00 71 1010.4
20260507190719 48 82 0.0 2.0 0.00 0.00 0.00 73 1010.5
20260507190005 48 171 1.0 3.0 0.00 0.00 0.00 74 1010.4
20260507185503 48 121 0.0 3.0 0.00 0.00 0.00 77 1010.4
20260507185003 47 346 0.0 2.0 0.00 0.00 0.00 77 1010.5
20260507184504 47 9 0.0 2.0 0.00 0.00 0.00 77 1010.6
20260507184003 47 21 0.0 2.0 0.00 0.00 0.00 77 1010.7
20260507183503 47 0 0.0 0.0 0.00 0.00 0.00 80 1010.6
20260507183004 48 36 0.0 2.0 0.00 0.00 0.00 78 1010.7
20260507182503 48 81 1.0 4.0 0.00 0.00 0.00 78 1010.7
20260507182003 49 207 1.0 4.0 0.00 0.00 0.00 73 1010.9
20260507181503 49 263 2.0 4.0 0.00 0.00 0.00 68 1010.9
20260507181003 50 277 2.0 3.0 0.00 0.00 0.00 69 1011.0
20260507180503 50 209 1.0 3.0 0.00 0.00 0.00 62 1010.7
20260507180003 50 166 1.0 3.0 0.00 0.00 0.00 64 1010.6
20260507175504 50 200 1.0 3.0 0.00 0.00 0.00 62 1010.5
20260507175003 50 201 2.0 6.0 0.00 0.00 0.00 59 1010.5
20260507174503 51 201 3.0 9.0 0.00 0.00 0.00 60 1010.6
20260507174003 52 209 2.0 9.0 0.00 0.00 0.00 55 1010.6
20260507173503 52 297 1.0 3.0 0.00 0.00 0.00 59 1010.7
20260507173004 52 331 1.0 3.0 0.00 0.00 0.00 56 1010.6
20260507172503 53 342 1.0 3.0 0.00 0.00 0.00 59 1010.5
20260507172003 53 356 1.0 5.0 0.00 0.00 0.00 59 1010.5
20260507171503 54 12 1.0 5.0 0.00 0.00 0.00 53 1010.5
20260507171010 54 8 1.0 3.0 0.00 0.00 0.00 54 1010.5
20260507170503 54 336 1.0 3.0 0.00 0.00 0.00 55 1010.5
20260507170003 54 314 1.0 2.0 0.00 0.00 0.00 53 1010.6
20260507165503 54 313 1.0 2.0 0.00 0.00 0.00 54 1010.7
20260507165217 54 334 1.0 3.0 0.00 0.00 0.00 54 1010.7
20260507164503 55 220 2.0 6.0 0.00 0.00 0.00 58 1010.8
20260507164003 54 216 2.0 6.0 0.00 0.00 0.00 50 1010.9
20260507163503 54 234 2.0 6.0 0.00 0.00 0.00 50 1011.0
20260507163003 54 216 2.0 6.0 0.00 0.00 0.00 52 1011.0
20260507162504 54 229 2.0 6.0 0.00 0.00 0.00 55 1011.1
20260507162004 53 241 2.0 5.0 0.00 0.00 0.00 53 1011.1
20260507161503 53 253 2.0 5.0 0.00 0.00 0.00 61 1011.2
20260507161003 53 315 1.0 3.0 0.00 0.00 0.00 63 1011.2
20260507160503 52 327 1.0 5.0 0.00 0.00 0.00 60 1011.3
20260507160003 52 337 1.0 5.0 0.00 0.00 0.00 56 1011.3
20260507155717 52 346 1.0 3.0 0.00 0.00 0.00 62 1011.3
20260507155005 52 248 2.0 4.0 0.00 0.00 0.00 59 1011.4
20260507154504 52 228 2.0 4.0 0.00 0.00 0.00 63 1011.4
20260507154003 51 238 2.0 4.0 0.00 0.00 0.00 62 1011.5
20260507153504 51 213 1.0 5.0 0.00 0.00 0.00 67 1011.5
20260507153218 51 186 1.0 5.0 0.00 0.00 0.00 62 1011.5
20260507152503 50 212 2.0 5.0 0.00 0.00 0.00 67 1011.4
20260507152218 50 211 1.0 5.0 0.00 0.00 0.00 62 1011.6
20260507151504 50 227 1.0 4.0 0.00 0.00 0.00 68 1011.7
20260507151003 50 291 1.0 4.0 0.00 0.00 0.00 69 1011.7
20260507150503 49 279 1.0 4.0 0.00 0.00 0.00 66 1011.8
20260507150218 49 234 1.0 4.0 0.00 0.01 0.00 70 1011.8
20260507145503 49 247 1.0 3.0 0.00 0.01 0.00 65 1011.9
20260507145003 48 254 2.0 4.0 0.00 0.01 0.00 68 1011.9
20260507144503 48 237 2.0 4.0 0.00 0.01 0.00 66 1011.9
20260507144218 48 237 2.0 4.0 0.00 0.01 0.00 68 1011.8
20260507143717 48 230 2.0 4.0 0.00 0.01 0.00 70 1011.9
20260507143003 47 218 2.0 4.0 0.00 0.01 0.00 68 1011.9
20260507142504 47 195 2.0 4.0 0.00 0.01 0.00 70 1011.9
20260507142218 46 207 2.0 3.0 0.00 0.01 0.00 73 1011.9
20260507141503 46 228 1.0 3.0 0.00 0.02 0.00 71 1011.9
20260507141003 45 223 1.0 4.0 0.00 0.02 0.00 70 1011.9
20260507140503 45 223 1.0 4.0 0.00 0.02 0.00 70 1012.0
20260507140006 45 218 1.0 4.0 0.00 0.02 0.00 73 1012.1
20260507135503 45 0 0.0 0.0 0.00 0.02 0.00 74 1012.2
20260507135003 45 182 0.0 2.0 0.00 0.02 0.00 78 1012.1
20260507134503 44 182 0.0 2.0 0.00 0.02 0.00 75 1012.2
20260507134003 44 149 1.0 2.0 0.00 0.02 0.00 74 1012.3
20260507133718 44 154 1.0 2.0 0.00 0.02 0.00 76 1012.4
20260507133003 44 30 1.0 4.0 0.00 0.03 0.00 73 1012.4
20260507132718 43 33 1.0 4.0 0.00 0.03 0.00 73 1012.4
20260507132003 43 14 1.0 2.0 0.00 0.03 0.00 77 1012.5
20260507131718 43 24 1.0 3.0 0.00 0.03 0.00 80 1012.5
20260507131003 42 46 1.0 4.0 0.00 0.03 0.00 78 1012.5
20260507130503 42 44 1.0 3.0 0.00 0.03 0.00 80 1012.5
20260507130217 42 37 1.0 4.0 0.00 0.03 0.00 81 1012.5
20260507125503 41 43 1.0 4.0 0.00 0.03 0.00 86 1012.6
20260507125217 41 57 0.0 2.0 0.00 0.03 0.00 87 1012.5
20260507124504 40 0 0.0 0.0 0.00 0.04 0.00 89 1012.6
20260507124004 40 0 0.0 0.0 0.00 0.04 0.00 91 1012.6
20260507123503 40 0 0.0 0.0 0.00 0.04 0.00 92 1012.7
20260507123217 40 0 0.0 0.0 0.00 0.05 0.00 92 1012.7
20260507122503 40 0 0.0 0.0 0.00 0.05 0.00 92 1012.6
20260507122004 40 0 0.0 0.0 0.00 0.05 0.00 91 1012.7
20260507121503 40 0 0.0 0.0 0.00 0.05 0.00 91 1012.7
20260507121006 40 0 0.0 0.0 0.00 0.05 0.00 93 1012.8
20260507120503 40 0 0.0 0.0 0.00 0.06 0.00 93 1012.9
20260507120005 40 0 0.0 0.0 0.00 0.06 0.00 93 1013.0
20260507115503 40 0 0.0 0.0 0.00 0.06 0.00 94 1012.9
20260507114718 41 0 0.0 0.0 0.00 0.06 0.00 94 1012.8
20260507114217 41 0 0.0 0.0 0.00 0.06 0.00 95 1012.9
20260507113718 41 0 0.0 0.0 0.00 0.07 0.00 95 1012.9
20260507113004 41 0 0.0 0.0 0.00 0.07 0.00 96 1012.8
20260507112503 41 0 0.0 0.0 0.00 0.07 0.00 96 1012.7
20260507112003 41 0 0.0 0.0 0.00 0.08 0.00 96 1012.6
20260507111504 41 0 0.0 0.0 0.00 0.08 0.00 96 1012.6
20260507111003 41 0 0.0 0.0 0.00 0.08 0.00 96 1012.4
20260507110503 41 0 0.0 0.0 0.00 0.08 0.00 96 1012.3
20260507110218 41 0 0.0 0.0 0.00 0.09 0.00 96 1012.2
20260507105503 41 0 0.0 0.0 0.00 0.09 0.00 96 1012.2
20260507105003 40 0 0.0 0.0 0.00 0.09 0.00 95 1012.1
20260507104504 40 0 0.0 0.0 0.00 0.09 0.00 95 1012.1
20260507104003 40 0 0.0 0.0 0.00 0.09 0.00 96 1012.1
20260507103503 40 0 0.0 0.0 0.00 0.10 0.00 96 1012.1
20260507103218 40 0 0.0 0.0 0.00 0.10 0.00 96 1012.0
20260507102503 40 0 0.0 0.0 0.00 0.10 0.00 96 1011.9
20260507102003 40 0 0.0 0.0 0.00 0.10 0.00 95 1011.9
20260507101717 40 0 0.0 0.0 0.00 0.11 0.00 95 1011.9
20260507101003 40 0 0.0 0.0 0.00 0.11 0.00 95 1011.9
20260507100503 40 5 0.0 1.0 0.00 0.11 0.00 96 1011.9
20260507100004 40 5 0.0 1.0 0.00 0.12 0.00 96 1012.0
20260507095718 40 0 0.0 0.0 0.00 0.12 0.00 95 1012.0
20260507095003 39 5 0.0 1.0 0.00 0.13 0.00 95 1012.0
20260507094503 39 5 0.0 1.0 0.00 0.13 0.00 95 1012.1
20260507094003 39 0 0.0 0.0 0.00 0.14 0.00 95 1012.0
20260507093503 39 0 0.0 0.0 0.00 0.14 0.00 95 1012.0
20260507093003 39 0 0.0 0.0 0.00 0.15 0.00 95 1012.1
20260507092503 39 0 0.0 0.0 0.00 0.15 0.00 95 1011.9
20260507092003 39 5 0.0 1.0 0.00 0.16 0.00 95 1012.0
20260507091717 39 5 0.0 1.0 0.00 0.16 0.00 95 1011.7
20260507091003 39 0 0.0 0.0 0.00 0.17 0.00 95 1012.1
20260507090717 38 0 0.0 0.0 0.00 0.17 0.00 95 1012.1
20260507090004 38 0 0.0 0.0 0.00 0.19 0.00 95 1012.2
20260507085503 38 0 0.0 0.0 0.00 0.19 0.00 95 1012.2
20260507085003 38 0 0.0 0.0 0.00 0.19 0.00 95 1012.0
20260507084503 38 0 0.0 0.0 0.00 0.20 0.00 95 1012.0
20260507084003 38 0 0.0 0.0 0.00 0.21 0.00 94 1012.0
20260507083503 38 0 0.0 0.0 0.00 0.21 0.00 94 1012.1
20260507083003 38 0 0.0 0.0 0.00 0.22 0.00 94 1011.9
20260507082719 38 0 0.0 0.0 0.00 0.22 0.00 94 1012.0
20260507082003 38 0 0.0 0.0 0.00 0.23 0.00 94 1012.0
20260507081504 38 0 0.0 0.0 0.00 0.24 0.00 94 1012.0
20260507081003 38 0 0.0 0.0 0.00 0.24 0.00 94 1012.0
20260507080503 38 0 0.0 0.0 0.00 0.24 0.00 94 1012.1
20260507080004 38 0 0.0 0.0 0.00 0.25 0.00 94 1012.1
20260507075503 38 0 0.0 0.0 0.00 0.25 0.00 94 1012.1
20260507075004 38 0 0.0 0.0 0.00 0.25 0.00 94 1012.0
20260507074503 39 0 0.0 0.0 0.00 0.26 0.00 94 1011.8
20260507074003 39 0 0.0 0.0 0.00 0.26 0.00 94 1011.8
20260507073504 39 0 0.0 0.0 0.00 0.27 0.00 94 1011.8
20260507073004 39 0 0.0 0.0 0.00 0.27 0.00 94 1011.8
20260507072503 39 0 0.0 0.0 0.00 0.28 0.00 93 1011.7
20260507072004 39 5 0.0 1.0 0.00 0.28 0.00 93 1011.9
20260507071504 40 5 0.0 1.0 0.00 0.29 0.00 93 1012.0
20260507071003 40 5 0.0 1.0 0.00 0.29 0.00 93 1011.9
20260507070503 40 5 0.0 1.0 0.00 0.30 0.00 93 1011.8
20260507070007 40 5 0.0 1.0 0.00 0.30 0.00 93 1011.8
20260507065718 40 5 0.0 1.0 0.00 0.31 0.00 93 1012.0
20260507065003 40 0 0.0 0.0 0.00 0.32 0.00 93 1012.1
20260507064504 41 0 0.0 0.0 0.00 0.33 0.00 93 1012.2
20260507064003 41 0 0.0 0.0 0.00 0.33 0.00 93 1012.2
20260507063503 41 0 0.0 0.0 0.00 0.34 0.00 93 1012.2
20260507063004 41 0 0.0 0.0 0.00 0.34 0.00 93 1012.2
20260507062503 41 0 0.0 0.0 0.00 0.35 0.00 94 1012.2
20260507062003 41 0 0.0 0.0 0.00 0.35 0.00 94 1012.2
20260507061503 42 0 0.0 0.0 0.00 0.36 0.00 94 1012.2
20260507061004 42 0 0.0 0.0 0.00 0.36 0.00 94 1012.3
20260507060503 42 0 0.0 0.0 0.00 0.36 0.00 94 1012.3
20260507060003 42 0 0.0 0.0 0.00 0.37 0.00 94 1012.3
20260507055503 42 0 0.0 0.0 0.00 0.37 0.00 94 1012.4
20260507055003 42 0 0.0 0.0 0.00 0.37 0.00 94 1012.4
20260507054717 42 0 0.0 0.0 0.00 0.38 0.00 94 1012.5
20260507054003 42 0 0.0 0.0 0.00 0.38 0.00 94 1012.6
20260507053503 42 0 0.0 0.0 0.00 0.39 0.00 94 1012.6
20260507053004 42 0 0.0 0.0 0.00 0.40 0.00 94 1012.5
20260507052503 42 0 0.0 0.0 0.00 0.41 0.00 94 1012.6
20260507052003 42 0 0.0 0.0 0.00 0.42 0.00 94 1012.6
20260507051503 42 0 0.0 0.0 0.00 0.43 0.00 94 1012.6
20260507051003 42 0 0.0 0.0 0.00 0.44 0.00 94 1012.7
20260507050503 42 0 0.0 0.0 0.00 0.45 0.00 94 1012.7
20260507050003 42 0 0.0 0.0 0.00 0.47 0.00 94 1012.7
20260507045503 42 0 0.0 0.0 0.00 0.48 0.00 94 1012.7
20260507045003 42 0 0.0 0.0 0.00 0.49 0.00 94 1012.7
20260507044503 42 0 0.0 0.0 0.00 0.51 0.00 94 1012.9
20260507044003 42 0 0.0 0.0 0.00 0.52 0.00 94 1012.8
20260507043717 42 0 0.0 0.0 0.00 0.53 0.00 94 1012.9
20260507043003 42 0 0.0 0.0 0.00 0.54 0.00 94 1012.9
20260507042717 42 0 0.0 0.0 0.00 0.54 0.00 94 1012.9
20260507042003 43 0 0.0 0.0 0.00 0.56 0.00 94 1012.7
20260507041503 42 0 0.0 0.0 0.00 0.56 0.00 94 1012.8
20260507041003 43 0 0.0 0.0 0.00 0.57 0.00 94 1012.7
20260507040503 42 0 0.0 0.0 0.00 0.57 0.00 94 1012.8
20260507040004 42 0 0.0 0.0 0.00 0.57 0.00 94 1012.8
20260507035503 42 0 0.0 0.0 0.00 0.57 0.57 94 1012.6
20260507035003 42 0 0.0 0.0 0.00 0.57 0.57 94 1012.5
20260507034503 42 0 0.0 0.0 0.00 0.57 0.57 93 1012.6
20260507034003 42 0 0.0 0.0 0.00 0.57 0.57 94 1012.6
20260507033717 42 0 0.0 0.0 0.00 0.57 0.57 93 1012.5
20260507033003 42 0 0.0 0.0 0.00 0.58 0.57 93 1012.5
20260507032503 42 0 0.0 0.0 0.00 0.58 0.57 93 1012.5
20260507032003 42 0 0.0 0.0 0.00 0.58 0.57 93 1012.6
20260507031503 43 0 0.0 0.0 0.00 0.59 0.57 93 1012.6
20260507031003 43 0 0.0 0.0 0.00 0.60 0.57 93 1012.6
20260507030503 43 0 0.0 0.0 0.00 0.60 0.57 93 1012.7
20260507030005 43 0 0.0 0.0 0.00 0.61 0.57 93 1012.6
20260507025503 43 0 0.0 0.0 0.00 0.62 0.57 94 1012.5
20260507025003 43 0 0.0 0.0 0.00 0.62 0.57 94 1012.5
20260507024503 43 5 0.0 1.0 0.00 0.63 0.57 93 1012.6
20260507024003 43 5 0.0 1.0 0.00 0.64 0.57 93 1012.6
20260507023503 43 0 0.0 0.0 0.00 0.64 0.57 93 1012.6
20260507023003 43 0 0.0 0.0 0.00 0.65 0.57 93 1012.6
20260507022503 43 0 0.0 0.0 0.00 0.65 0.57 93 1012.7
20260507022003 43 0 0.0 0.0 0.00 0.65 0.57 93 1012.7
20260507021503 43 0 0.0 0.0 0.00 0.65 0.57 93 1012.7
20260507021003 43 0 0.0 0.0 0.00 0.66 0.57 93 1012.8
20260507020503 43 0 0.0 0.0 0.00 0.66 0.57 93 1012.9
20260507020011 43 5 0.0 1.0 0.00 0.66 0.57 93 1012.9
20260507015503 43 5 0.0 1.0 0.00 0.66 0.57 93 1012.9
20260507015003 43 5 0.0 1.0 0.00 0.66 0.57 93 1012.9
20260507014718 43 5 0.0 1.0 0.00 0.66 0.57 93 1013.0
20260507014003 43 5 0.0 1.0 0.00 0.66 0.57 93 1012.9
20260507013503 43 5 0.0 1.0 0.00 0.66 0.57 93 1012.9
20260507013003 43 0 0.0 0.0 0.00 0.66 0.57 93 1012.9
20260507012503 43 0 0.0 0.0 0.00 0.66 0.57 93 1012.6
20260507012003 43 0 0.0 0.0 0.00 0.67 0.57 93 1012.5
20260507011503 43 0 0.0 0.0 0.00 0.67 0.57 93 1012.5
20260507011003 43 0 0.0 0.0 0.00 0.67 0.57 93 1012.5
20260507010503 43 0 0.0 0.0 0.00 0.67 0.57 93 1012.4
20260507010219 43 0 0.0 0.0 0.00 0.68 0.57 93 1012.4
20260507005718 43 0 0.0 0.0 0.00 0.68 0.57 93 1012.3
20260507005003 43 0 0.0 0.0 0.00 0.69 0.57 93 1012.3
20260507004503 43 0 0.0 0.0 0.00 0.70 0.57 93 1012.2